Location: Unspecified
(0.0000°N, 0.0000°E)
Time: 12:43:01
(UTC+00:00)

AO-7 - Visible Passes

Search period start: 19 June 2018 00:00
Search period end: 29 June 2018 00:00
Orbit: 1440 x 1459 km, 101.7° (Epoch: 19 June)

Date Brightness Start Highest point End Pass type
(mag) Time Alt. Az. Time Alt. Az. Time Alt. Az.
19 Jun ? 02:39:28 10° NNE 02:46:23 49° E 02:46:23 49° E visible
19 Jun ? 04:34:01 10° NNW 04:39:51 21° WNW 04:41:18 20° W visible
20 Jun ? 01:43:22 10° ENE 01:45:21 14° E 01:45:21 14° E visible
20 Jun ? 03:31:59 10° N 03:40:13 65° WNW 03:40:16 65° WNW visible
21 Jun ? 02:32:42 10° NE 02:39:14 42° E 02:39:14 42° E visible
21 Jun ? 04:26:34 10° NNW 04:32:54 24° WNW 04:34:09 24° W visible
22 Jun ? 01:37:27 10° E 01:38:12 11° E 01:38:12 11° E visible
22 Jun ? 03:24:56 10° N 03:33:06 73° WNW 03:33:06 73° WNW visible
23 Jun ? 02:25:58 10° NE 02:32:04 37° E 02:32:04 37° E visible
23 Jun ? 04:19:12 10° NNW 04:25:58 28° WNW 04:26:59 27° W visible
24 Jun ? 03:17:56 10° NNE 03:25:57 80° NW 03:25:57 80° NW visible
25 Jun ? 02:19:16 10° NE 02:24:54 32° E 02:24:54 32° E visible
25 Jun ? 04:11:54 10° NNW 04:19:01 32° WNW 04:19:48 31° W visible
26 Jun ? 03:10:58 10° NNE 03:18:47 80° NNE 03:18:47 80° NNE visible
27 Jun ? 02:12:39 10° NE 02:17:44 28° E 02:17:44 28° E visible
27 Jun ? 04:04:39 10° N 04:12:03 36° WNW 04:12:38 36° W visible
28 Jun ? 03:04:01 10° NNE 03:11:36 73° NE 03:11:36 73° NE visible
28 Jun ? 05:02:08 10° NW 05:04:39 12° WNW 05:06:31 11° W visible
